Probability
0 0 0 0 0 0 0 0 0 0 0 0 0 0 0 0 0 0 0 0 0 0 2 7 12 14 14 14 14 12 10 7 4 2 2 3 5 7 9 8 6 2 0 0 1 1 1 1 2
0 0 0 0 0 0 0 0 0 0 0 0 0 0 0 0 0 0 0 0 0 0 2 7 11 14 14 15 14 13 11 7 4 2 1 2 3 4 6 8 7 3 1 1 1 1 1 1 2
0 0 0 0 0 0 0 0 0 0 0 0 0 0 0 0 0 0 0 0 1 1 2 5 10 12 13 14 15 14 12 9 5 2 1 1 1 2 4 7 8 7 5 4 4 3 2 1 1
0 0 0 0 0 0 0 0 0 0 0 0 0 0 0 0 0 0 0 1 2 3 2 4 8 11 12 13 13 13 12 10 7 3 1 1 1 3 5 6 7 8 8 7 5 4 3 3 3
0 0 0 0 0 0 0 0 0 0 0 0 0 0 0 0 0 0 1 2 4 4 2 3 7 11 12 12 11 10 9 9 6 3 2 2 3 4 5 6 5 6 7 7 5 5 5 5 6
0 0 0 0 0 0 0 0 0 0 0 0 0 0 0 0 0 0 1 3 4 5 3 3 6 9 11 12 11 8 7 6 5 3 3 3 4 4 4 3 3 4 7 7 6 6 6 8 9
0 0 0 0 0 0 0 0 0 0 0 0 0 0 0 0 0 0 1 2 2 4 4 3 5 8 10 11 11 9 7 6 6 5 4 4 4 3 2 2 2 4 7 9 9 7 6 8 11
0 0 0 0 0 0 0 0 0 0 0 0 0 0 0 0 0 0 0 0 1 2 3 3 4 6 8 9 10 9 7 6 6 5 4 3 3 1 1 1 1 4 7 8 8 8 7 8 9
0 0 0 0 0 0 0 0 0 0 0 0 0 0 0 0 0 0 0 0 0 0 1 2 3 4 5 6 8 8 7 5 6 6 4 2 1 0 0 0 1 3 4 5 6 7 8 7 7
0 0 0 0 0 0 0 0 0 0 0 0 0 0 0 0 0 0 0 0 0 0 0 1 2 3 4 5 6 8 8 6 7 7 5 2 0 0 0 0 0 1 1 2 3 5 6 5 4
0 0 0 0 0 0 0 0 0 0 0 0 0 0 0 0 0 0 0 0 0 0 0 0 1 2 3 4 6 7 7 7 7 7 4 2 1 0 0 0 0 0 0 0 0 1 2 2 1
0 0 0 0 0 0 0 0 0 0 0 0 0 0 0 0 0 0 0 0 0 0 0 0 0 1 1 3 5 6 5 6 6 6 4 3 2 1 0 0 0 0 0 0 0 0 0 0 0
0 0 0 0 0 0 0 0 0 0 0 0 0 0 0 0 0 0 0 0 0 0 0 0 0 0 0 1 2 4 4 4 4 4 3 3 2 1 0 0 0 0 0 0 0 0 0 0 0
0 0 0 0 0 0 0 0 0 0 0 0 0 0 0 0 0 0 0 0 0 0 0 0 0 0 0 0 0 2 3 3 3 3 2 3 2 1 0 0 0 1 1 1 0 0 0 0 0
0 0 0 0 0 0 0 0 0 0 0 0 0 0 0 0 0 0 0 0 0 0 0 0 0 0 0 0 0 1 2 3 3 2 1 2 2 1 0 0 0 1 1 1 0 0 0 0 0
0 0 0 0 0 0 0 0 0 0 0 0 0 0 0 0 0 0 0 0 0 0 0 0 0 0 0 0 0 0 1 2 3 2 1 1 1 1 0 0 0 0 0 0 0 0 0 0 0
0 0 0 0 0 0 0 0 0 0 0 0 0 0 0 0 0 0 0 0 0 0 0 0 0 0 0 0 0 0 0 1 2 2 1 0 0 0 0 0 0 0 0 0 0 0 0 0 0
0 0 0 0 0 0 0 0 0 0 0 0 0 0 0 0 0 0 0 0 0 0 0 0 0 0 0 0 0 0 0 0 1 2 1 0 0 0 0 0 0 0 0 0 0 0 0 0 0
0 0 0 0 0 0 0 0 0 0 0 0 0 0 0 0 0 0 0 0 0 0 0 0 0 0 0 0 0 0 0 0 1 1 1 0 0 0 0 0 0 0 0 0 0 0 0 0 0
0 0 0 0 0 0 0 0 0 0 0 0 0 0 0 0 0 0 0 0 0 0 0 0 0 0 0 0 0 0 0 0 0 0 0 0 0 0 0 0 0 0 0 0 0 0 0 0 0
0 0 0 0 0 0 0 0 0 0 0 0 0 0 0 0 0 0 0 0 0 0 0 0 0 0 0 0 0 0 0 0 0 0 0 0 0 0 0 0 0 0 0 0 0 0 0 0 0
0 0 0 0 0 0 0 0 0 0 0 0 0 0 0 0 0 0 0 0 0 0 0 0 0 0 0 0 0 0 0 0 0 0 0 0 0 0 0 0 0 0 0 0 0 0 0 0 0
0 0 0 0 0 0 0 0 0 0 0 0 0 0 0 0 0 0 0 0 0 0 0 0 0 0 0 0 0 0 0 0 1 1 1 0 0 0 0 0 0 0 0 0 0 0 0 0 0
0 0 0 0 0 0 0 0 0 0 0 0 0 0 0 0 0 0 0 0 0 0 0 0 0 0 0 0 0 0 0 0 1 2 1 1 0 0 0 0 0 0 0 0 0 0 0 0 0
0 0 0 0 0 0 0 0 0 0 0 0 0 0 0 0 0 0 0 0 0 0 0 0 0 0 0 0 0 0 0 0 0 1 1 1 1 1 1 0 0 0 0 0 0 0 0 0 0
0 0 0 0 0 0 0 0 0 0 0 0 0 0 0 0 0 0 0 0 0 0 0 0 0 0 0 0 0 0 0 0 0 0 0 0 0 0 0 0 0 0 0 0 0 0 0 0 0
0 0 0 0 0 0 0 0 0 0 0 0 0 0 0 0 0 0 0 0 0 0 0 0 0 0 0 0 0 0 0 0 0 0 0 0 0 0 0 0 0 0 0 0 0 0 0 0 0
0 0 0 0 0 0 0 0 0 0 0 0 0 0 0 0 0 0 0 0 0 0 0 0 0 0 0 0 0 0 0 0 1 1 0 0 0 0 0 0 0 0 0 0 0 0 0 0 0
0 0 0 0 0 0 0 0 0 0 0 0 0 0 0 0 0 0 0 0 0 0 0 0 0 0 0 0 0 0 0 0 1 1 0 0 0 0 0 0 0 0 0 0 0 0 0 0 0
0 0 0 0 0 0 0 0 0 0 0 0 0 0 0 0 0 0 0 0 0 0 0 0 0 0 0 0 0 0 0 0 1 0 0 0 0 0 0 0 0 0 0 0 0 0 0 0 0
Wind_Speed
6 4 2 4 6 4 2 5 3 0 1 0 2 8 8 5 4 6 3 2 5 4 3 5 7 7 8 8 7 6 6 6 5 5 4 4 4 3 3 4 3 4 4 4 4 5 5 6 6
2 2 4 5 5 2 4 4 2 2 2 2 4 6 7 4 3 5 2 3 6 5 4 4 7 7 8 8 8 7 6 5 5 4 4 3 3 2 2 3 3 3 4 4 4 4 5 5 5
2 1 4 4 3 5 4 3 4 1 1 2 4 5 5 4 3 3 2 5 5 5 3 4 7 7 7 7 7 7 6 5 4 4 3 3 2 2 1 1 2 2 3 3 4 4 5 6 6
3 4 4 3 3 4 3 3 3 2 3 4 4 5 4 1 3 3 3 6 7 4 3 4 7 7 7 7 6 6 6 5 5 4 3 2 2 1 1 0 1 2 2 3 4 4 5 6 6
3 4 3 0 4 3 3 3 2 2 2 2 4 5 3 3 2 4 5 6 7 4 3 4 7 7 7 7 6 6 6 6 5 5 4 3 2 2 1 1 1 1 2 3 3 4 5 6 7
4 4 3 3 4 3 2 2 1 2 2 2 4 5 2 2 2 3 5 5 5 5 3 3 6 7 7 7 6 7 6 6 6 6 5 4 4 3 2 2 1 1 2 2 3 4 4 5 6
4 4 4 4 2 2 2 0 2 3 2 1 4 6 2 2 1 3 5 5 5 5 4 3 3 4 6 7 7 7 7 7 7 7 7 6 5 5 4 4 3 2 1 2 2 3 4 5 5
4 4 1 2 3 3 1 1 2 3 2 0 4 7 5 5 1 4 5 5 5 5 4 3 3 3 3 2 6 7 7 8 8 8 8 7 6 5 5 5 4 4 3 2 2 3 4 4 5
3 4 2 3 3 2 1 2 2 1 2 2 2 4 5 5 4 5 4 4 4 4 3 3 3 3 2 2 4 5 6 7 7 6 8 7 3 3 3 5 5 5 4 4 3 3 3 4 5
4 3 4 2 2 2 0 1 0 2 1 1 2 2 3 4 5 5 4 3 2 2 2 2 3 3 3 3 3 2 2 3 3 3 3 3 3 3 4 5 6 6 6 5 5 4 3 3 2
4 5 3 1 2 2 1 1 0 3 3 4 5 5 4 3 3 4 3 3 3 2 2 2 2 2 3 2 2 1 2 2 2 3 3 3 2 2 2 2 3 3 4 3 3 3 2 2 2
3 3 3 2 2 2 2 1 2 4 7 5 6 7 6 5 5 5 5 4 3 3 2 1 2 2 2 2 2 1 1 1 2 2 2 2 2 2 2 1 2 2 2 2 2 2 2 3 3
3 2 1 2 2 3 2 3 3 6 7 4 4 5 6 7 5 4 5 4 4 4 3 2 2 2 2 2 1 2 1 1 2 2 2 2 1 2 2 1 1 2 2 2 2 2 3 3 3
2 1 3 3 3 2 3 3 3 9 6 4 6 7 7 7 7 5 4 4 4 4 4 3 3 2 2 1 1 0 1 1 1 2 2 1 1 1 1 2 1 1 1 1 2 3 3 3 3
1 2 4 4 4 3 2 5 8 9 4 5 6 6 7 7 6 7 7 6 6 5 5 4 3 2 2 1 0 0 1 1 1 1 2 2 1 1 1 2 2 2 2 2 1 2 2 3 3
2 1 3 4 5 4 4 8 7 5 6 7 7 6 6 6 6 7 7 6 6 5 5 4 3 3 2 1 0 0 1 1 1 2 2 2 2 1 1 1 2 2 2 2 2 1 2 3 3
0 2 4 4 3 4 5 8 7 3 5 7 7 7 6 5 5 5 6 7 6 6 5 4 3 3 2 1 1 1 1 1 2 2 2 2 3 2 2 2 2 2 2 2 3 2 2 3 4
6 4 4 5 3 4 5 10 11 6 6 8 7 7 7 7 8 6 6 6 6 5 5 4 3 3 2 1 0 1 1 2 2 2 3 3 3 3 2 2 3 2 2 2 2 3 3 3 3
4 4 4 5 3 3 8 12 13 9 7 8 8 7 7 8 6 5 5 5 5 4 4 4 3 2 2 1 1 1 2 2 3 3 4 4 4 4 3 3 3 3 3 4 3 2 3 3 2
2 2 3 3 1 3 6 11 11 8 8 9 9 9 8 5 4 4 5 5 5 5 5 4 4 3 3 2 2 2 2 3 3 3 4 5 5 4 4 4 3 4 3 4 3 2 2 2 2
5 5 4 3 4 3 4 9 6 5 4 4 6 7 7 8 8 6 6 5 5 5 6 5 5 4 4 3 1 1 1 2 2 3 3 4 5 5 5 5 4 4 4 4 4 4 4 3 3
5 5 4 2 1 4 1 6 8 4 4 3 3 4 6 6 6 6 6 5 6 6 5 5 5 4 4 3 3 3 3 4 5 4 4 5 5 6 6 6 5 5 4 5 5 5 4 4 4
5 2 3 2 2 2 2 4 10 3 4 6 5 5 6 6 7 7 7 6 5 5 4 4 4 4 4 4 4 4 4 5 4 4 5 5 5 6 6 6 6 6 5 6 6 6 5 4 5
5 5 6 5 4 3 5 6 9 5 7 5 5 5 5 5 5 5 5 4 3 3 3 4 4 4 4 4 4 5 6 6 6 6 5 5 5 5 7 7 6 6 6 6 7 7 7 6 6
5 6 3 4 2 7 3 5 11 8 7 6 7 7 6 5 5 4 4 4 4 4 4 4 4 5 5 5 5 6 7 7 8 7 6 6 5 5 7 7 6 6 7 7 7 7 7 7 8
6 8 8 7 6 5 2 8 10 6 4 4 4 5 5 5 5 5 6 5 5 5 5 5 5 6 5 5 6 6 7 5 6 7 7 7 6 7 7 7 8 8 8 8 7 6 8 7 8
7 4 5 6 1 3 7 7 9 2 1 1 3 4 5 5 4 5 5 5 5 5 5 6 6 6 6 6 6 6 6 6 7 7 7 6 7 6 7 8 8 8 8 8 8 7 8 8 8
5 7 5 5 5 5 6 6 6 4 4 3 3 4 4 4 4 4 4 5 5 5 4 4 5 5 5 5 6 6 6 7 7 7 8 8 8 7 7 8 8 8 8 8 8 7 8 9 9
6 4 5 5 5 6 5 9 7 7 6 6 5 5 5 5 5 5 5 5 4 3 3 3 4 4 4 5 5 5 6 6 6 6 7 8 7 7 8 8 8 8 8 8 8 9 9 10 10
5 7 8 7 6 5 4 10 5 5 5 5 4 4 4 4 4 5 5 4 3 3 3 3 4 4 5 5 5 5 6 6 6 7 7 7 7 7 8 8 9 9 9 8 9 10 10 10 11
Wind_Direction
343 351 65 58 60 57 239 250 237 135 93 62 90 97 101 94 118 148 206 189 134 125 109 95 82 79 78 74 74 77 83 84 84 87 94 101 112 124 134 141 150 154 155 156 154 145 143 142 141
1 13 58 63 94 135 258 256 221 225 195 149 89 87 83 79 89 121 162 137 128 120 109 98 85 81 78 75 72 69 69 73 78 80 86 95 106 123 147 159 165 169 171 171 168 157 159 160 158
349 69 84 83 135 184 212 227 188 203 7 95 71 62 92 118 128 146 171 135 114 107 105 99 88 82 77 73 70 65 62 62 64 68 73 84 94 108 135 177 184 187 194 191 184 173 173 177 175
55 57 62 89 217 231 209 217 194 131 36 49 90 67 64 49 154 160 130 121 110 104 100 97 90 81 73 68 67 64 58 52 52 56 59 65 68 78 79 187 203 209 212 206 196 191 185 188 186
66 83 87 190 238 245 230 227 197 115 81 49 89 97 71 347 82 113 108 111 117 114 99 95 89 80 72 65 62 58 54 47 40 38 41 43 37 26 22 17 273 243 227 214 212 209 201 197 197
64 78 116 211 237 243 257 264 145 101 101 78 90 106 136 312 81 98 102 102 115 120 102 86 82 75 69 63 59 54 48 43 39 32 29 30 31 28 26 13 359 294 255 242 232 224 217 210 206
111 118 176 207 213 230 232 351 122 121 105 124 123 118 163 273 179 112 99 94 89 97 91 72 65 65 62 59 55 52 46 40 36 33 26 25 26 22 21 18 11 359 311 276 253 239 230 222 217
131 116 199 233 203 217 265 72 91 116 140 151 115 140 183 220 191 95 83 76 78 76 76 70 55 49 45 47 49 45 41 37 36 32 28 24 20 17 16 12 11 5 343 319 293 270 248 236 228
99 91 205 224 193 205 330 78 10 63 94 44 73 167 186 167 124 93 73 58 66 67 61 72 62 49 35 35 37 35 36 31 30 28 27 25 7 0 8 3 5 2 354 337 319 301 292 268 243
98 158 218 220 174 170 27 82 137 63 41 25 32 35 115 122 120 118 119 118 104 99 82 77 74 57 41 31 29 16 28 23 24 20 20 16 10 3 16 2 5 360 355 346 333 323 307 296 270
155 191 215 190 152 132 87 334 319 145 219 207 186 176 154 140 142 146 153 157 160 152 121 88 96 81 65 36 27 18 10 12 15 20 21 18 15 5 11 5 355 351 354 346 333 326 318 297 273
175 230 212 196 171 145 175 264 293 215 219 201 180 170 165 169 183 180 174 174 167 145 141 113 97 86 74 61 31 25 15 5 3 0 15 28 14 1 353 357 348 354 345 338 337 322 316 299 279
208 252 265 199 191 195 199 226 247 251 240 217 183 177 184 188 197 198 185 177 162 159 166 161 131 106 86 70 30 26 5 360 347 355 3 25 17 351 337 333 339 340 342 339 331 321 311 300 284
196 248 289 250 222 218 213 252 237 254 238 216 202 203 201 198 196 192 188 186 181 175 176 172 153 139 110 87 57 0 337 334 345 341 333 360 12 347 338 321 313 308 310 310 305 306 294 284 283
105 1 316 251 206 215 173 274 234 242 212 213 214 210 208 212 201 194 195 189 185 182 176 174 167 150 130 117 58 5 313 327 322 314 311 311 318 322 324 318 305 291 294 300 306 309 310 307 300
70 53 289 269 185 175 157 261 258 241 197 221 223 217 214 219 210 201 194 185 181 174 175 182 169 155 156 153 192 284 298 297 287 295 301 299 293 289 291 294 292 288 293 297 294 293 304 296 291
64 211 239 274 191 165 189 248 267 266 199 222 223 217 217 219 218 208 191 181 175 171 171 172 169 169 176 182 199 255 278 273 264 268 276 282 279 267 253 256 267 280 280 280 286 298 293 290 292
200 209 229 241 224 180 224 255 270 271 233 231 229 223 218 211 216 206 191 178 166 164 163 165 171 179 176 168 322 314 298 279 268 257 254 261 266 260 252 254 257 260 264 266 269 279 287 280 281
169 182 234 249 230 209 239 259 269 264 243 238 234 225 219 216 220 197 178 166 155 158 161 170 174 188 172 179 219 255 267 269 270 257 249 249 254 254 245 254 253 246 242 244 250 266 277 287 295
217 231 252 284 289 231 265 272 271 258 233 222 217 213 210 205 193 181 172 167 169 175 177 181 188 195 198 204 215 220 236 250 251 257 256 247 247 250 251 242 244 245 246 249 245 245 248 272 284
222 209 216 243 332 342 324 302 286 280 241 225 208 199 196 189 186 184 178 182 180 187 191 194 200 205 213 214 218 278 296 296 281 271 263 254 250 249 245 242 240 242 236 237 239 233 230 255 266
228 214 192 184 57 293 357 294 286 284 295 258 213 192 196 191 183 179 179 185 192 202 200 199 206 214 222 211 208 226 242 255 255 254 257 263 254 252 245 242 239 237 237 238 238 237 228 229 254
195 144 131 132 138 316 272 236 280 292 263 254 228 207 201 192 182 180 184 189 198 197 197 206 212 223 227 221 218 227 244 249 259 263 265 264 257 250 245 240 237 235 237 239 238 238 233 225 237
130 71 57 52 72 277 223 195 273 241 224 232 224 212 202 191 185 186 189 186 199 206 208 211 219 237 236 233 233 230 242 253 263 267 263 263 260 255 247 243 238 236 237 239 240 235 232 233 238
114 101 51 355 342 251 224 211 251 245 234 211 204 206 200 186 182 187 189 197 208 214 222 222 222 240 244 239 241 241 242 244 247 253 252 260 262 257 249 247 240 240 240 241 242 238 235 232 235
175 150 163 194 222 268 254 233 253 263 261 230 195 183 177 183 189 194 200 204 213 221 224 224 231 246 249 245 250 250 249 247 247 247 247 249 252 251 249 244 242 242 242 247 244 244 242 239 238
147 186 162 132 149 267 263 275 296 289 298 170 165 166 183 195 204 209 214 217 223 226 227 224 231 248 253 253 257 259 257 253 255 254 249 251 252 255 251 247 247 246 244 244 244 246 244 241 241
149 147 119 138 171 242 273 261 241 234 230 215 195 196 206 209 217 223 225 228 230 230 235 234 232 242 252 254 254 261 260 258 260 255 254 255 254 254 253 253 250 250 249 246 245 249 247 245 246
152 160 152 146 167 176 247 262 225 208 207 204 208 203 202 208 218 226 234 238 241 248 247 251 256 258 264 264 263 269 271 269 269 259 255 255 257 257 258 258 256 253 252 250 246 248 250 250 252
178 176 154 164 214 196 207 265 263 221 214 196 203 213 222 223 227 233 237 244 249 250 253 256 262 262 262 265 272 275 279 282 280 270 265 262 261 260 259 261 259 258 258 252 249 253 253 252 253